Probability
0 0 0 0 0 0 0 0 0 0 0 0 0 0 0 0 0 0 0 0 0 0 0 0 0 0 0 0 0 0 0 0 0 0 0 0 0 0 0 0 0 0 0 0
0 0 0 0 0 0 0 0 0 0 0 0 0 0 0 0 0 0 0 0 0 0 0 0 0 0 0 0 0 0 0 0 0 0 0 0 0 0 0 0 0 0 0 0
0 0 0 0 0 0 0 0 0 0 0 0 0 0 0 0 0 0 0 0 0 0 0 0 0 0 0 0 0 0 0 0 0 0 0 0 0 0 0 0 0 0 0 0
0 0 0 0 0 0 0 0 0 0 0 0 0 0 0 0 0 0 0 0 0 0 0 0 0 0 0 0 0 0 0 0 0 0 0 0 0 0 0 0 0 0 0 0
0 0 0 0 0 0 0 0 0 0 0 0 0 0 0 0 0 0 0 0 0 0 0 0 0 0 0 0 0 0 0 0 0 0 0 0 0 0 0 0 0 0 0 0
0 0 0 0 0 0 0 0 0 0 0 0 0 0 0 0 0 0 0 0 0 0 0 0 0 0 0 0 1 1 0 0 0 0 0 0 0 0 0 0 0 0 0 0
0 0 0 0 0 0 0 0 0 0 0 0 0 0 0 0 0 0 0 0 1 2 1 0 0 1 0 0 1 2 1 1 0 0 0 0 0 0 0 0 0 0 0 0
0 0 0 0 0 0 0 0 0 0 0 0 0 0 0 0 0 0 0 1 3 3 2 1 1 1 0 0 1 2 3 2 1 0 0 0 0 0 0 0 0 0 0 0
0 0 0 0 0 0 0 0 0 0 0 0 0 0 0 0 0 0 0 2 3 3 3 2 1 0 0 0 1 2 3 2 1 0 0 0 0 0 0 0 0 0 0 0
0 0 0 0 0 0 0 0 0 0 0 0 0 0 0 0 0 0 0 1 1 2 2 2 1 1 0 0 1 2 2 1 0 0 0 0 0 0 0 0 0 0 0 0
0 0 0 0 0 0 0 0 0 0 0 0 0 0 0 0 0 0 0 0 0 1 2 2 2 1 0 0 1 1 1 0 0 0 0 0 0 0 0 0 0 0 0 0
0 0 0 0 0 0 0 0 0 0 0 0 0 0 0 0 0 0 0 0 0 2 4 4 3 1 0 0 0 0 0 0 0 0 0 0 0 0 0 0 0 0 0 0
0 0 0 0 0 0 0 0 0 0 0 0 0 0 0 0 0 1 2 2 2 4 5 5 3 1 0 0 0 0 0 0 0 0 0 0 0 0 0 0 0 0 0 0
0 0 0 0 0 0 0 0 0 0 0 0 0 0 0 0 0 1 3 4 5 6 6 5 3 1 0 0 0 0 0 0 0 0 0 0 0 0 0 0 0 0 0 0
0 0 0 0 0 0 0 0 0 0 0 0 0 0 0 0 0 1 2 4 6 6 6 5 3 2 0 0 0 0 0 0 0 0 0 0 0 0 0 0 0 0 0 0
0 0 0 0 0 0 0 0 0 0 0 0 0 0 0 0 0 0 1 3 4 4 5 5 4 3 1 0 0 0 0 0 0 0 0 0 0 0 0 0 0 0 0 0
0 0 0 0 0 0 0 0 0 0 0 0 0 0 0 0 0 0 1 1 2 2 2 3 4 3 1 0 0 0 0 0 0 0 0 0 0 0 0 0 0 0 0 0
0 0 0 0 0 0 0 0 0 0 0 0 0 0 0 0 0 0 0 0 0 0 1 2 3 2 1 0 1 1 1 0 0 0 0 0 0 0 0 0 0 0 0 0
0 0 0 0 0 0 0 0 0 0 0 0 0 0 0 0 0 0 0 0 0 0 1 2 2 1 0 0 1 2 1 0 0 0 0 0 0 0 0 0 0 0 0 0
0 0 0 0 0 0 0 0 0 0 0 0 0 0 0 0 0 0 0 1 1 0 0 1 1 0 0 0 1 2 1 0 0 0 0 0 0 0 0 0 0 0 0 0
0 0 0 0 0 0 0 0 0 0 0 0 0 0 0 0 0 0 0 1 1 1 1 0 0 0 0 1 2 2 1 0 0 0 0 0 0 0 0 0 0 0 0 0
0 0 0 0 0 0 0 0 0 0 0 0 0 0 0 0 0 0 0 1 2 2 1 0 0 1 1 1 2 2 1 1 1 1 1 1 0 0 0 0 0 0 0 0
0 0 0 0 0 0 0 0 0 0 0 0 0 0 0 0 0 1 1 2 2 1 0 0 0 1 1 1 1 1 1 1 2 2 2 1 0 0 0 0 0 0 0 0
0 0 0 0 0 0 0 0 0 0 0 0 0 0 0 0 1 2 3 2 1 0 0 0 0 1 1 0 0 0 0 1 2 1 1 1 0 0 0 0 0 0 0 0
0 0 0 0 0 0 0 0 0 0 0 0 0 0 0 0 1 2 2 2 1 0 0 0 0 0 0 0 0 0 0 0 0 0 0 0 0 0 0 0 0 0 0 0
0 0 0 0 0 0 0 0 0 0 0 0 0 0 0 0 0 1 1 1 0 0 0 0 0 0 0 0 0 0 0 0 0 0 0 0 0 0 0 0 0 0 0 0
Wind_Speed
6 6 6 6 7 7 4 6 6 5 6 6 6 8 10 9 8 8 8 8 9 9 9 8 8 7 6 6 8 6 5 5 4 2 3 3 2 3 3 3 4 5 5 5
5 6 5 3 4 5 4 5 5 5 4 4 6 7 9 9 9 7 8 8 9 9 10 9 8 6 6 6 6 7 5 5 5 2 2 2 2 3 3 3 3 5 5 6
5 3 4 3 3 3 3 5 5 5 4 4 5 6 8 9 8 7 7 7 9 10 11 10 9 7 6 6 5 6 6 6 5 4 3 3 2 2 3 3 3 4 5 5
3 3 3 4 4 4 3 4 5 5 4 4 6 4 7 10 10 9 8 7 8 9 10 9 8 8 6 6 5 6 5 6 5 4 3 3 3 2 3 2 2 3 4 4
3 5 5 4 3 1 2 4 4 4 2 3 5 3 6 12 12 11 10 8 8 9 10 10 8 7 7 6 5 5 6 6 5 5 4 2 3 3 2 2 2 3 3 3
3 3 3 3 3 3 4 3 1 1 2 4 7 5 5 10 13 13 12 11 9 9 10 9 8 7 7 6 5 6 6 5 4 4 4 3 4 4 3 3 2 2 2 2
5 4 3 4 5 5 5 4 2 3 3 4 6 6 5 8 12 13 13 12 11 9 10 10 10 8 7 7 6 6 6 5 4 3 3 4 4 3 3 2 2 2 2 2
6 6 7 6 5 6 8 6 3 2 3 3 6 5 3 7 9 11 11 12 12 12 10 11 10 9 8 8 7 7 7 6 4 3 3 4 4 2 2 2 2 2 2 2
3 4 7 6 5 5 6 6 4 3 4 3 4 3 3 5 9 11 12 12 12 11 10 11 11 10 9 9 7 7 7 6 5 4 4 4 4 3 3 2 2 2 2 2
2 3 6 6 5 6 5 4 4 4 3 3 5 7 7 10 9 10 11 12 12 12 12 11 10 10 9 8 8 8 8 7 5 4 4 4 3 3 3 2 3 3 3 3
2 3 6 7 7 8 8 8 6 4 4 2 1 1 4 10 11 10 10 11 11 12 12 11 10 9 9 8 8 7 7 7 6 5 4 5 3 3 3 3 3 2 2 2
4 2 5 8 7 7 8 10 8 4 3 3 1 2 3 7 9 9 10 11 12 12 11 11 10 9 9 9 9 8 7 7 6 5 5 5 4 3 3 3 2 2 2 2
4 2 3 5 6 7 8 10 9 6 4 4 3 2 4 6 7 8 9 10 10 12 11 11 10 10 9 9 8 8 7 7 6 5 5 5 5 4 3 3 2 2 2 2
2 4 5 4 3 6 9 10 10 8 5 5 5 4 4 6 6 8 8 9 9 11 12 11 10 10 9 9 8 8 7 7 7 6 5 5 5 5 4 4 3 2 2 2
5 6 6 6 6 7 8 10 11 11 10 7 6 5 4 5 5 7 9 9 10 11 11 12 11 10 10 10 9 8 8 8 8 7 6 5 5 5 4 4 3 2 2 3
8 7 7 7 8 8 8 9 10 10 10 10 9 7 4 4 5 6 8 9 11 11 11 12 12 11 11 11 11 10 9 8 8 8 6 5 5 5 5 4 3 3 2 3
9 9 6 6 5 6 8 9 10 10 9 9 9 6 3 4 5 6 7 8 10 11 11 12 12 12 11 11 11 11 10 9 9 8 7 7 6 6 5 5 4 3 3 3
8 7 3 4 5 7 5 4 5 7 7 7 6 4 3 3 4 5 6 8 8 9 10 11 11 11 10 10 10 10 9 9 9 8 8 7 7 6 5 5 4 3 3 3
8 5 3 4 6 7 6 4 4 5 5 6 5 5 4 3 3 3 5 8 9 9 9 9 9 10 10 10 11 11 10 9 9 9 9 8 8 7 6 5 4 3 3 3
8 6 5 5 5 4 2 1 1 3 3 4 3 3 3 4 3 2 4 7 7 7 7 8 8 9 10 10 11 11 11 10 9 9 9 8 8 8 7 6 4 3 3 3
8 7 7 7 6 5 2 1 1 2 1 3 4 2 1 1 2 3 4 6 6 6 7 7 8 8 8 10 11 11 10 10 9 8 8 8 8 7 7 5 4 4 3 3
8 6 7 7 6 3 1 0 1 3 4 5 5 5 5 5 4 4 5 5 6 6 7 7 7 6 7 9 10 10 9 9 9 9 8 8 8 7 7 6 5 4 4 4
5 5 3 3 1 3 2 2 4 4 4 5 5 5 4 3 3 3 4 4 5 6 6 6 6 6 6 7 8 9 8 9 10 9 8 8 8 6 6 6 5 4 4 4
3 3 3 3 2 3 2 2 3 3 3 4 4 3 2 1 1 2 3 4 4 4 5 5 6 6 6 7 7 7 8 10 11 10 9 8 8 7 7 5 5 4 4 4
3 2 3 4 1 1 1 3 4 3 3 3 2 2 1 0 1 1 3 4 5 5 5 5 6 6 6 6 7 7 9 10 10 10 9 8 7 7 6 5 5 5 4 5
5 4 3 2 2 2 2 3 3 3 3 3 3 3 2 1 1 1 2 3 4 5 5 5 5 5 6 7 7 7 8 9 9 9 8 6 6 5 5 5 4 4 5 7
Wind_Direction
202 220 221 208 215 229 199 186 157 143 150 150 161 167 173 180 178 178 178 171 163 153 145 134 128 129 129 125 121 123 125 108 92 66 70 74 69 67 60 59 40 29 30 21
200 223 230 221 213 227 216 158 132 129 147 158 171 186 180 186 186 184 180 174 165 151 143 139 141 139 132 121 123 128 117 105 97 83 91 96 87 86 85 60 43 40 37 20
207 199 205 209 202 202 203 166 151 151 159 173 178 188 185 189 187 185 193 188 164 154 150 152 149 139 130 128 125 116 117 112 105 99 77 72 69 68 76 73 53 45 47 34
209 219 199 203 208 200 178 140 151 164 172 185 193 186 198 191 193 190 191 185 169 158 150 149 150 144 140 130 124 123 116 108 105 101 85 93 94 88 82 84 83 75 59 49
194 192 200 197 201 190 131 132 152 175 202 236 224 207 198 189 187 187 188 184 170 156 152 152 151 143 137 129 125 117 110 105 106 104 92 71 71 79 75 79 76 82 67 55
202 194 194 166 140 128 138 138 149 207 236 240 232 221 200 193 185 182 184 182 171 159 152 153 145 136 128 124 121 113 112 107 108 112 118 105 90 87 79 76 64 82 79 55
195 180 169 164 153 163 183 182 182 198 207 232 218 223 212 198 180 177 179 177 169 162 161 157 150 145 140 139 138 132 129 128 132 136 135 120 105 104 96 93 85 82 83 71
201 184 182 193 196 184 197 208 204 207 218 216 204 217 195 177 166 168 174 172 167 168 166 157 154 149 150 152 153 149 143 141 146 154 140 121 114 105 95 82 91 82 88 89
225 178 173 185 206 193 196 209 235 269 266 251 209 175 156 155 161 169 171 167 169 167 162 155 154 154 155 158 159 156 152 152 156 162 135 116 111 100 97 85 80 74 79 78
234 165 169 173 198 227 228 222 223 228 229 229 216 190 178 171 173 172 169 169 167 165 162 158 157 159 159 160 161 164 159 156 157 159 143 126 126 113 101 81 68 65 66 60
220 187 173 177 204 210 209 226 234 250 245 247 242 225 169 174 175 179 175 169 167 164 162 158 158 158 154 155 159 162 159 155 157 158 140 129 128 123 114 97 87 76 77 73
219 225 197 202 209 227 230 226 221 235 269 277 256 261 167 162 170 175 176 170 166 163 159 155 155 153 154 160 166 165 163 156 154 150 136 133 136 130 124 115 110 99 83 69
202 228 207 192 198 207 230 233 230 233 251 257 245 220 163 152 163 169 169 163 162 159 156 156 157 159 161 165 166 164 159 153 149 147 146 144 141 138 134 126 119 106 91 79
234 237 228 219 221 207 218 224 225 233 240 250 248 211 173 164 169 166 162 159 157 162 160 160 162 164 164 166 166 163 156 150 151 151 153 154 149 143 133 118 113 101 93 87
229 252 253 248 242 239 225 224 224 231 243 251 251 246 214 178 176 166 164 162 162 166 166 165 168 167 166 169 168 162 157 156 157 157 161 162 145 134 124 116 112 94 84 86
228 250 256 263 257 246 242 237 231 232 239 253 255 251 218 186 178 169 171 168 170 169 174 171 172 169 173 175 172 163 161 163 161 163 163 146 137 132 131 133 129 112 91 77
219 240 261 272 263 250 244 238 234 232 231 239 251 249 218 187 179 181 174 173 176 172 175 174 176 175 178 180 173 166 165 164 165 162 152 145 143 140 141 140 124 122 118 98
225 237 251 266 270 253 256 228 225 237 244 245 252 249 230 207 180 177 171 172 175 175 176 176 177 174 176 174 165 161 161 165 164 159 152 151 147 145 143 138 142 152 140 126
227 234 249 256 262 263 258 226 207 225 250 254 252 252 232 201 166 184 182 173 176 176 174 174 176 170 172 169 163 161 165 166 163 160 158 157 154 151 149 151 157 156 142 141
223 234 244 250 258 266 294 349 225 234 265 301 272 253 219 180 185 185 167 159 161 163 162 164 165 166 169 165 159 162 167 168 167 161 159 157 153 152 157 160 158 149 146 152
206 219 233 246 251 259 300 349 245 205 344 348 357 11 359 120 109 109 117 137 146 148 149 152 159 164 165 159 158 166 170 171 161 153 151 151 151 154 156 155 153 154 157 162
205 208 224 233 240 248 73 226 26 32 22 23 28 28 41 57 64 83 105 124 139 141 143 150 156 158 157 157 162 169 170 159 148 147 148 152 153 161 159 155 163 168 165 172
221 215 219 222 178 100 97 54 40 24 13 21 29 32 40 55 62 80 111 125 136 142 149 152 153 154 156 160 164 170 160 148 147 149 153 156 158 160 157 161 170 173 174 181
258 241 233 232 175 118 109 55 37 27 18 18 17 17 22 34 61 109 123 130 138 145 151 154 156 161 166 166 165 161 150 151 152 157 162 164 166 167 168 171 176 178 185 189
315 308 268 260 285 38 40 44 31 20 10 5 8 359 343 14 127 135 143 146 154 158 159 162 168 171 172 166 165 157 154 156 161 165 169 173 173 172 174 175 181 187 192 188
287 282 266 284 328 320 14 35 27 19 9 6 6 3 360 59 113 122 136 138 145 154 158 166 171 172 174 173 172 165 162 165 169 173 176 176 173 172 173 172 180 193 191 187